Temp
-23 -24 -25 -27 -28 -27 -27 -26 -26 -25 -25 -23 -22 -22 -21 -20 -20 -20 -19 -18 -17 -15 -14 -13 -14 -14 -15 -14 -12 -13 -12 -12 -12 -13 -13 -13 -13 -12 -12 -12 -13 -13 -13
-23 -24 -25 -28 -29 -28 -27 -27 -26 -26 -25 -24 -23 -22 -21 -20 -20 -20 -19 -19 -18 -17 -15 -14 -14 -14 -14 -14 -13 -13 -13 -12 -12 -12 -13 -13 -12 -12 -12 -12 -12 -13 -12
-24 -24 -25 -28 -29 -28 -28 -27 -27 -26 -26 -25 -24 -23 -22 -20 -20 -20 -20 -19 -18 -18 -16 -14 -14 -14 -14 -14 -13 -13 -12 -13 -12 -12 -12 -13 -13 -13 -12 -12 -12 -12 -12
-24 -24 -25 -27 -29 -29 -28 -27 -27 -26 -26 -25 -24 -23 -22 -21 -20 -20 -20 -19 -18 -18 -17 -16 -14 -14 -14 -14 -14 -13 -13 -13 -12 -12 -13 -12 -13 -13 -13 -12 -12 -12 -12
-24 -24 -25 -27 -28 -29 -28 -28 -27 -26 -26 -25 -25 -24 -23 -21 -20 -20 -20 -19 -19 -18 -18 -17 -16 -15 -14 -15 -14 -13 -13 -13 -12 -12 -13 -13 -13 -13 -13 -13 -13 -13 -12
-24 -25 -25 -26 -28 -29 -28 -28 -27 -26 -26 -26 -25 -25 -23 -22 -21 -20 -20 -19 -19 -18 -18 -18 -17 -16 -15 -15 -16 -14 -14 -13 -13 -13 -13 -12 -12 -13 -13 -12 -13 -13 -13
-25 -25 -25 -26 -28 -29 -29 -28 -27 -27 -26 -26 -25 -25 -24 -23 -21 -20 -19 -19 -18 -18 -18 -18 -18 -17 -16 -15 -16 -15 -14 -13 -13 -13 -13 -13 -13 -13 -13 -12 -12 -13 -13
-24 -25 -25 -26 -27 -28 -29 -28 -28 -27 -26 -26 -25 -25 -25 -24 -22 -21 -20 -19 -19 -18 -18 -18 -18 -18 -17 -16 -15 -16 -15 -13 -13 -13 -13 -12 -13 -13 -12 -12 -12 -12 -12
-24 -25 -25 -26 -26 -27 -29 -29 -28 -28 -27 -26 -26 -25 -25 -24 -24 -22 -20 -19 -19 -18 -18 -18 -18 -18 -17 -17 -16 -15 -16 -14 -13 -13 -13 -12 -13 -13 -12 -12 -12 -12 -12
-24 -25 -25 -26 -26 -27 -28 -29 -29 -28 -27 -27 -26 -26 -25 -25 -24 -23 -21 -20 -19 -18 -18 -18 -18 -18 -18 -18 -17 -16 -15 -15 -13 -13 -13 -13 -13 -13 -13 -13 -12 -12 -12
-24 -25 -25 -26 -26 -26 -27 -29 -29 -29 -28 -27 -27 -26 -26 -26 -25 -24 -23 -21 -20 -19 -19 -20 -19 -19 -18 -18 -18 -17 -16 -15 -15 -14 -14 -14 -14 -13 -13 -12 -13 -12 -12
-24 -25 -25 -26 -26 -26 -27 -28 -30 -29 -29 -28 -27 -27 -26 -26 -25 -25 -25 -24 -22 -21 -20 -20 -20 -20 -20 -19 -19 -18 -17 -16 -16 -15 -14 -14 -13 -13 -13 -12 -12 -13 -12
-24 -25 -25 -26 -26 -26 -27 -28 -29 -30 -30 -29 -28 -28 -27 -26 -26 -25 -25 -25 -25 -22 -21 -21 -21 -20 -20 -20 -19 -19 -18 -17 -16 -15 -15 -14 -13 -13 -13 -12 -12 -13 -13
-24 -24 -25 -26 -26 -26 -26 -27 -28 -30 -30 -30 -29 -28 -28 -27 -26 -26 -25 -25 -25 -25 -23 -21 -21 -21 -21 -21 -20 -20 -19 -18 -17 -16 -15 -14 -14 -15 -14 -14 -13 -12 -13
-24 -24 -25 -25 -26 -26 -26 -27 -28 -29 -30 -30 -29 -29 -29 -28 -27 -27 -26 -26 -25 -25 -25 -24 -22 -22 -21 -21 -21 -21 -20 -19 -19 -17 -17 -16 -15 -15 -14 -14 -14 -13 -13
-24 -24 -24 -25 -26 -26 -27 -27 -27 -29 -30 -30 -30 -29 -29 -28 -28 -27 -26 -26 -25 -25 -25 -25 -24 -23 -22 -21 -21 -21 -20 -20 -20 -19 -18 -18 -16 -16 -15 -15 -14 -14 -13
-23 -24 -25 -25 -26 -26 -27 -27 -28 -29 -30 -30 -30 -30 -29 -29 -28 -28 -27 -27 -26 -25 -25 -25 -25 -25 -24 -22 -21 -21 -21 -20 -19 -20 -19 -19 -18 -17 -16 -15 -14 -14 -13
-23 -24 -25 -25 -26 -26 -27 -27 -27 -28 -30 -31 -31 -30 -30 -29 -29 -28 -28 -27 -27 -26 -26 -25 -25 -25 -25 -25 -23 -22 -21 -20 -20 -19 -20 -19 -19 -19 -18 -17 -15 -15 -13
-24 -24 -24 -25 -25 -26 -27 -27 -27 -28 -30 -31 -31 -30 -30 -30 -29 -29 -29 -28 -28 -27 -26 -26 -26 -26 -25 -25 -25 -24 -23 -21 -20 -20 -19 -19 -20 -19 -19 -18 -17 -16 -15
-23 -24 -24 -25 -25 -26 -27 -27 -27 -28 -29 -31 -31 -31 -31 -30 -30 -30 -29 -29 -29 -28 -27 -27 -27 -26 -26 -25 -25 -25 -24 -23 -22 -21 -20 -20 -19 -19 -19 -19 -18 -18 -17
-23 -24 -24 -25 -25 -26 -27 -27 -28 -28 -29 -30 -31 -31 -31 -31 -30 -30 -30 -30 -29 -29 -28 -28 -27 -27 -27 -26 -26 -25 -24 -25 -24 -23 -22 -20 -19 -19 -19 -19 -19 -18 -18
-23 -24 -24 -25 -25 -26 -27 -27 -28 -28 -29 -30 -31 -31 -31 -31 -31 -30 -30 -30 -30 -29 -29 -29 -28 -28 -27 -27 -26 -27 -26 -24 -24 -24 -24 -22 -21 -20 -19 -19 -18 -18 -18
-23 -24 -24 -25 -25 -26 -26 -27 -28 -28 -29 -29 -31 -32 -32 -31 -31 -31 -31 -30 -30 -30 -30 -29 -29 -29 -29 -28 -28 -27 -27 -26 -25 -24 -24 -24 -23 -21 -21 -20 -19 -19 -18
-23 -24 -24 -25 -25 -26 -26 -27 -28 -28 -29 -29 -30 -32 -32 -32 -31 -31 -31 -31 -31 -31 -30 -30 -30 -29 -29 -29 -29 -29 -28 -27 -27 -27 -26 -25 -23 -23 -23 -22 -20 -20 -19
-23 -24 -24 -25 -25 -26 -26 -27 -28 -28 -29 -29 -30 -31 -32 -32 -32 -32 -31 -31 -31 -31 -31 -31 -31 -30 -30 -29 -29 -30 -29 -29 -28 -27 -27 -27 -26 -26 -25 -23 -22 -21 -20
-23 -24 -24 -25 -25 -26 -26 -27 -28 -29 -29 -29 -30 -31 -32 -32 -32 -32 -32 -32 -31 -31 -31 -31 -31 -31 -31 -30 -30 -30 -30 -30 -29 -29 -28 -27 -27 -26 -26 -26 -25 -24 -22
Height
5599 5582 5566 5555 5550 5547 5544 5543 5542 5542 5542 5543 5545 5548 5550 5555 5558 5560 5563 5567 5573 5582 5594 5606 5616 5627 5639 5650 5662 5676 5685 5691 5705 5717 5729 5737 5744 5754 5763 5771 5780 5785 5792
5596 5579 5562 5551 5545 5542 5539 5537 5536 5535 5535 5534 5535 5538 5541 5545 5548 5550 5551 5555 5562 5570 5579 5591 5601 5614 5625 5637 5649 5662 5672 5681 5684 5703 5716 5725 5734 5744 5753 5763 5771 5777 5783
5594 5578 5561 5549 5542 5538 5535 5533 5531 5529 5528 5527 5528 5529 5533 5536 5538 5540 5542 5545 5551 5558 5567 5577 5588 5600 5612 5623 5634 5648 5661 5670 5678 5690 5702 5712 5722 5731 5740 5751 5759 5765 5772
5594 5577 5560 5547 5540 5535 5532 5530 5527 5525 5523 5522 5521 5521 5524 5527 5530 5531 5534 5537 5542 5548 5555 5564 5575 5586 5599 5608 5622 5636 5647 5659 5669 5680 5692 5699 5709 5719 5728 5738 5747 5754 5762
5593 5578 5562 5547 5538 5533 5529 5526 5524 5521 5518 5516 5514 5515 5517 5520 5522 5524 5526 5529 5534 5540 5546 5553 5562 5573 5587 5597 5608 5620 5633 5646 5658 5668 5677 5688 5698 5705 5715 5725 5734 5747 5753
5593 5578 5562 5548 5538 5532 5527 5523 5521 5518 5515 5513 5511 5510 5510 5513 5515 5517 5520 5521 5526 5532 5538 5545 5552 5561 5573 5586 5596 5608 5620 5632 5644 5656 5665 5675 5687 5697 5703 5712 5722 5729 5738
5593 5579 5564 5550 5538 5531 5526 5521 5518 5516 5513 5511 5508 5507 5506 5507 5509 5511 5513 5515 5518 5523 5530 5536 5543 5551 5561 5573 5583 5594 5605 5616 5631 5642 5653 5662 5673 5684 5691 5699 5708 5719 5728
5594 5581 5567 5553 5540 5530 5524 5519 5515 5512 5510 5507 5505 5504 5502 5502 5503 5504 5506 5507 5510 5516 5522 5528 5535 5542 5550 5560 5570 5580 5590 5603 5615 5627 5635 5648 5659 5669 5676 5687 5695 5694 5702
5594 5582 5569 5555 5542 5531 5523 5517 5513 5509 5505 5503 5501 5499 5498 5497 5498 5498 5497 5498 5501 5507 5513 5519 5526 5532 5540 5550 5558 5568 5576 5588 5601 5613 5623 5634 5644 5652 5663 5672 5682 5688 5697
5595 5583 5571 5557 5545 5532 5522 5515 5510 5506 5502 5499 5496 5494 5493 5493 5493 5491 5490 5491 5493 5498 5503 5508 5514 5521 5528 5537 5544 5553 5562 5573 5585 5598 5607 5617 5627 5635 5646 5656 5666 5673 5680
5594 5584 5571 5559 5546 5534 5522 5513 5507 5503 5499 5496 5492 5490 5489 5488 5487 5487 5485 5485 5486 5489 5493 5498 5503 5509 5516 5523 5531 5539 5547 5558 5569 5580 5589 5602 5611 5622 5632 5641 5651 5659 5665
5594 5583 5572 5560 5549 5536 5523 5512 5505 5500 5496 5493 5490 5487 5484 5483 5483 5482 5481 5479 5480 5482 5484 5488 5493 5500 5504 5510 5517 5524 5532 5542 5553 5564 5573 5584 5596 5605 5614 5625 5635 5645 5650
5594 5583 5572 5561 5550 5538 5526 5513 5504 5498 5494 5490 5487 5484 5482 5479 5478 5478 5477 5476 5474 5474 5476 5479 5483 5488 5495 5498 5503 5510 5518 5526 5537 5547 5556 5567 5578 5587 5598 5608 5620 5627 5637
5594 5583 5572 5562 5550 5539 5527 5515 5504 5496 5491 5487 5484 5480 5478 5476 5473 5472 5472 5471 5470 5469 5468 5470 5473 5478 5483 5487 5491 5497 5504 5512 5520 5529 5538 5548 5559 5570 5582 5593 5602 5611 5620
5594 5582 5572 5561 5550 5539 5528 5518 5504 5495 5490 5485 5481 5478 5475 5473 5471 5469 5467 5466 5465 5464 5463 5462 5463 5467 5472 5476 5480 5484 5490 5498 5505 5513 5522 5531 5543 5553 5563 5575 5583 5593 5601
5593 5582 5571 5560 5549 5539 5526 5514 5504 5494 5487 5483 5479 5475 5472 5469 5467 5465 5463 5462 5460 5459 5459 5457 5456 5457 5461 5466 5469 5473 5477 5484 5492 5499 5507 5516 5525 5535 5546 5557 5567 5576 5585
5591 5581 5571 5559 5549 5539 5528 5516 5502 5491 5485 5481 5477 5473 5470 5467 5464 5462 5460 5457 5455 5455 5453 5453 5452 5451 5451 5454 5459 5463 5466 5472 5479 5486 5493 5501 5510 5519 5527 5537 5546 5557 5568
5589 5580 5569 5560 5548 5537 5528 5518 5506 5494 5484 5478 5475 5471 5468 5465 5462 5459 5457 5455 5453 5450 5448 5448 5447 5446 5446 5447 5447 5450 5456 5460 5467 5474 5481 5488 5496 5504 5512 5521 5529 5537 5547
5587 5577 5568 5558 5548 5538 5528 5517 5506 5494 5484 5477 5472 5469 5465 5462 5459 5456 5455 5452 5450 5447 5445 5443 5442 5441 5440 5441 5442 5442 5445 5448 5454 5461 5468 5475 5483 5490 5498 5506 5513 5520 5528
5586 5576 5567 5556 5548 5536 5526 5516 5505 5495 5484 5476 5471 5467 5463 5460 5456 5453 5451 5449 5447 5444 5442 5439 5438 5437 5436 5436 5437 5437 5437 5440 5443 5448 5455 5461 5469 5477 5484 5489 5497 5504 5510
5584 5575 5565 5555 5545 5535 5525 5515 5505 5495 5484 5474 5468 5464 5460 5457 5454 5451 5448 5446 5443 5441 5438 5436 5434 5432 5432 5431 5431 5432 5432 5433 5435 5438 5442 5447 5454 5462 5467 5474 5481 5487 5494
5582 5572 5563 5553 5543 5534 5524 5514 5504 5494 5484 5473 5465 5460 5456 5453 5450 5448 5445 5442 5440 5438 5436 5433 5431 5429 5428 5427 5427 5426 5425 5426 5428 5429 5430 5435 5440 5445 5452 5459 5466 5471 5477
5578 5569 5560 5551 5541 5532 5522 5513 5503 5494 5484 5473 5464 5457 5452 5449 5445 5442 5440 5438 5436 5434 5432 5430 5428 5425 5424 5422 5421 5420 5420 5420 5420 5421 5422 5425 5427 5432 5438 5443 5450 5455 5460
5575 5566 5557 5548 5539 5530 5521 5512 5502 5493 5483 5473 5463 5455 5450 5445 5441 5438 5435 5432 5430 5428 5427 5425 5424 5421 5418 5417 5416 5415 5414 5414 5414 5414 5414 5415 5417 5422 5424 5427 5433 5438 5444
5571 5563 5554 5546 5537 5528 5519 5510 5501 5492 5483 5473 5463 5454 5447 5442 5438 5434 5430 5427 5425 5423 5421 5419 5418 5417 5415 5413 5410 5409 5408 5408 5407 5407 5408 5409 5410 5411 5411 5415 5420 5423 5428
5567 5559 5550 5541 5533 5525 5516 5507 5499 5491 5482 5473 5463 5453 5445 5439 5434 5430 5427 5423 5421 5418 5415 5414 5412 5411 5409 5408 5407 5404 5403 5402 5402 5401 5401 5401 5401 5403 5405 5406 5408 5409 5412
Wind_Speed
65 66 58 38 24 20 18 18 19 20 21 21 23 27 31 26 29 29 32 45 47 51 67 73 71 71 66 72 72 71 67 54 61 67 62 58 59 61 61 58 56 55 52
65 67 60 41 25 21 18 16 16 18 19 18 20 24 28 32 26 27 29 44 49 50 56 72 72 72 71 68 69 69 63 64 74 72 67 64 61 59 60 60 58 58 55
64 67 62 42 26 22 20 16 16 17 17 18 19 20 22 27 25 26 27 39 47 52 54 63 74 73 71 72 73 82 73 61 70 75 69 67 63 62 63 64 64 62 59
62 66 64 46 28 22 20 17 16 16 17 18 19 19 18 22 24 26 25 34 45 48 54 59 68 72 74 73 67 74 77 69 65 76 73 72 70 67 66 65 66 66 63
61 64 64 51 33 23 21 18 16 15 15 15 17 17 18 19 22 26 24 29 38 45 49 56 61 68 76 74 71 72 70 71 85 65 76 74 72 71 69 66 66 65 65
60 62 64 60 40 27 22 19 17 15 14 14 13 15 16 17 22 27 25 30 35 38 42 50 56 65 75 78 77 73 69 71 78 78 81 81 77 73 70 68 68 68 69
58 59 63 61 48 32 25 21 18 16 15 15 12 12 13 14 19 24 25 27 38 38 38 42 49 57 65 72 79 75 73 77 77 75 78 78 78 75 73 72 70 68 65
56 58 59 61 57 40 27 23 20 17 15 16 14 11 10 13 14 20 23 26 36 41 40 39 41 47 56 66 75 75 75 80 77 81 78 78 78 83 81 77 73 59 65
56 56 56 59 60 51 34 25 21 18 16 16 16 15 11 11 14 15 16 21 31 37 43 44 44 44 48 58 72 79 78 75 84 74 80 80 80 77 88 86 74 74 74
56 55 56 56 59 58 44 30 24 20 16 14 15 14 14 12 12 13 12 18 27 37 44 49 51 53 50 55 61 73 76 77 80 79 81 82 89 74 84 85 84 79 81
56 55 54 56 56 58 54 37 26 23 20 16 13 13 13 13 12 12 12 14 22 31 36 40 45 50 54 56 60 63 74 78 79 77 82 80 78 91 87 79 77 79 90
55 55 53 54 54 56 57 45 30 24 23 19 16 13 13 12 12 12 12 14 15 30 36 38 41 45 44 52 61 66 67 75 78 78 83 83 81 75 77 93 91 78 80
55 55 54 52 54 53 55 54 34 25 22 20 19 16 14 14 13 11 12 11 12 17 33 42 40 40 40 41 54 65 70 69 78 82 81 83 86 81 73 73 89 83 84
55 55 54 52 53 52 54 56 44 27 22 20 19 19 17 15 16 16 12 12 9 11 19 31 41 41 39 36 41 50 64 69 72 81 84 84 84 85 77 72 86 97 96
53 54 55 53 52 53 54 56 53 34 21 18 17 16 17 16 15 17 17 17 16 12 11 20 29 34 37 40 40 43 53 63 67 74 80 83 85 82 79 75 80 83 79
52 52 55 54 52 52 54 58 57 44 26 20 17 16 16 14 13 14 16 16 16 17 13 10 17 28 36 38 38 41 44 58 59 63 73 77 80 82 82 82 79 77 78
52 52 53 55 52 52 52 55 58 52 33 21 19 17 15 15 13 13 13 14 15 16 16 14 8 15 25 35 37 41 41 46 53 54 63 70 73 78 81 84 81 83 82
51 52 52 52 53 53 52 53 56 53 38 26 21 18 16 15 14 13 12 13 13 14 16 16 16 10 11 18 29 35 43 44 48 51 56 65 71 71 74 75 83 86 86
51 51 52 51 53 52 52 53 55 55 44 29 23 20 17 15 15 14 12 12 13 13 14 15 15 18 14 10 16 26 36 41 49 53 55 58 69 71 71 70 72 82 88
51 52 50 52 52 52 51 52 55 55 52 35 24 21 20 17 16 15 15 13 13 13 13 14 14 14 17 17 13 16 24 37 43 49 54 57 66 67 66 71 70 70 76
49 50 52 52 52 51 51 51 54 55 55 43 29 23 19 17 16 16 15 14 13 13 13 13 14 14 14 17 21 16 17 19 25 39 47 53 56 64 62 65 62 64 68
50 50 52 51 51 52 50 51 52 54 56 51 35 27 23 20 18 15 15 14 14 13 13 13 13 13 14 15 16 20 21 17 20 21 29 47 55 55 59 60 63 62 64
50 50 51 51 51 51 51 50 50 52 54 55 43 31 26 23 21 19 17 16 15 14 13 13 13 13 13 13 15 17 18 21 24 22 21 24 32 44 56 56 60 62 64
50 51 50 51 50 50 51 49 48 50 52 54 50 36 29 25 23 22 20 18 17 16 15 14 13 13 15 15 13 15 16 19 21 24 26 25 23 27 28 34 46 57 64
50 50 51 51 50 50 49 49 48 48 50 52 53 44 34 28 24 22 21 20 19 18 17 16 16 15 14 14 16 16 16 17 19 20 23 26 28 29 28 28 32 36 43
51 51 50 50 49 49 49 48 47 47 48 49 53 49 39 32 27 23 22 21 21 20 19 18 18 17 17 15 16 16 18 18 18 20 22 25 26 29 32 33 34 34 34
Wind_Direction
352 350 347 338 325 320 308 292 278 274 268 261 253 251 252 251 243 244 241 221 216 224 223 220 221 222 223 219 219 221 218 217 215 216 215 212 211 211 212 212 212 213 210
353 353 350 345 333 327 319 305 291 287 276 266 257 246 245 249 248 246 243 225 216 215 219 221 222 220 224 223 215 207 208 210 208 218 213 215 215 214 214 214 214 217 215
355 355 353 350 339 331 326 317 304 300 290 275 260 246 236 241 245 242 246 227 219 214 212 218 221 221 222 220 211 214 211 216 210 208 215 214 217 216 217 215 216 216 218
356 358 357 356 346 338 331 325 313 308 299 281 270 250 231 233 238 239 247 232 222 217 213 213 217 221 220 220 210 211 212 209 213 215 212 217 215 217 219 218 219 220 220
358 360 360 360 354 345 340 333 323 315 309 293 280 260 240 226 231 231 245 235 224 220 217 214 213 216 220 224 224 206 208 213 212 210 217 219 218 217 220 220 221 221 223
359 1 2 2 358 350 344 340 333 323 318 313 291 270 253 225 223 224 237 237 227 221 221 218 215 212 216 222 225 215 207 206 209 213 216 220 220 222 220 222 223 223 223
359 2 3 4 1 354 346 342 336 326 317 314 313 285 274 248 223 221 231 240 226 221 217 215 217 215 214 216 222 225 222 205 209 205 213 219 222 220 223 223 226 228 227
359 1 3 4 4 359 349 343 338 331 318 313 313 302 287 271 241 224 223 227 222 222 216 213 214 216 218 215 218 226 225 214 208 213 213 213 222 230 227 226 225 223 218
359 1 2 4 3 3 355 344 339 332 321 311 307 307 298 289 268 247 229 224 215 219 224 222 217 218 218 217 214 223 227 223 211 214 217 215 220 221 225 223 224 226 231
359 0 2 3 3 3 360 351 341 338 329 317 304 304 303 294 291 284 252 231 220 218 220 224 227 226 223 219 220 219 223 228 222 216 218 220 220 216 218 221 225 230 230
359 2 0 1 3 2 2 356 347 340 338 331 317 299 297 298 301 298 288 250 232 221 221 222 220 223 224 224 221 221 221 224 228 225 220 216 214 222 218 218 222 233 234
359 1 1 1 3 2 0 360 350 343 338 334 331 320 297 292 295 297 300 287 256 230 222 222 224 227 233 232 226 223 222 220 222 228 224 227 224 219 228 224 227 230 229
359 360 1 1 3 3 1 360 354 345 339 334 329 326 318 299 294 294 297 303 282 261 233 229 231 228 235 239 233 228 222 221 218 220 224 228 227 225 228 228 221 221 228
358 359 360 1 2 3 3 359 0 350 341 336 331 325 323 315 304 301 297 300 302 273 261 240 236 234 232 237 234 229 228 223 221 220 221 225 228 232 232 231 227 227 230
358 358 359 1 2 1 3 5 1 358 347 338 332 324 321 316 305 298 298 297 300 305 271 251 242 239 230 231 234 232 231 231 227 222 222 222 225 227 229 231 227 225 228
358 359 358 1 0 2 1 3 3 3 356 347 339 331 322 314 305 296 296 290 285 286 303 236 237 237 230 224 228 232 232 233 234 231 226 225 224 223 224 228 226 226 230
357 357 358 358 359 3 4 2 1 1 360 353 344 339 331 322 315 305 298 301 292 282 281 286 247 225 236 235 229 230 228 234 236 236 231 229 228 226 224 225 229 224 228
357 356 359 357 358 1 3 3 5 2 360 352 350 343 336 328 319 312 301 291 292 286 282 279 282 268 218 236 241 236 230 226 232 239 236 232 229 229 229 226 228 227 227
354 357 355 356 358 359 2 3 4 4 2 357 349 347 340 333 326 318 311 306 302 299 287 283 276 281 273 229 223 232 238 235 232 232 234 236 232 232 230 227 230 229 228
353 354 354 355 357 357 0 2 3 4 2 359 353 346 342 336 330 324 317 315 311 307 300 290 284 274 272 273 241 218 216 230 229 228 229 229 230 232 237 233 230 231 234
353 352 354 354 355 356 358 1 1 4 3 1 353 349 343 336 327 321 316 308 307 307 310 304 292 282 273 266 271 257 221 210 215 226 232 233 232 233 240 235 240 238 232
352 353 353 353 353 355 356 359 0 2 3 1 355 349 345 339 332 322 316 309 304 302 303 304 301 290 279 268 259 263 267 250 224 213 213 226 227 231 234 234 237 235 233
351 352 352 351 352 353 354 356 359 0 3 1 359 350 346 341 336 329 319 312 306 299 298 299 300 300 290 278 272 263 256 258 259 256 231 214 211 220 228 228 234 235 233
350 351 351 350 351 352 353 353 356 359 0 2 360 355 347 343 337 333 327 318 309 304 298 294 295 298 301 294 282 274 265 258 256 256 261 259 243 223 215 219 226 230 235
349 350 350 349 349 350 351 351 354 355 358 1 359 357 350 345 337 335 330 325 317 308 301 296 292 292 289 295 294 284 277 271 265 258 254 254 255 259 258 235 227 226 229
347 349 349 348 348 348 349 349 351 354 355 357 2 357 353 349 345 332 333 332 324 317 307 298 292 289 285 285 284 292 284 275 269 265 261 256 254 252 251 252 254 248 240